Vertical_Velocity
-2 -2 0 12 10 12 25 4 -2 -2 18 -3 -1 -0 -5 -2 1 1 -0 0 -1 -3 -0 0 1 -1 -1 -0 -4 -0 -2 0 0 -6 -1 2 2 -3 -1 7 -3 -1 4 -4
3 -4 3 18 0 -2 -7 -8 -1 35 -0 -0 2 4 -0 -3 5 -1 2 0 -1 0 -2 3 1 0 1 -1 -0 -3 -2 0 2 11 7 7 0 -2 -0 1 3 -5 9 1
-0 -1 6 21 -2 5 17 -10 -1 5 14 -3 -5 -0 -2 4 2 1 -0 -1 -1 2 2 1 -1 1 2 0 -1 -1 0 1 2 2 11 1 2 1 0 4 5 -5 -6 2
-2 0 9 5 5 8 13 -0 -2 -21 -2 8 1 3 -1 1 3 0 0 4 0 -4 1 2 -0 1 3 2 -1 1 2 1 4 -3 -1 3 -0 0 -1 2 -3 9 0 -1
5 -3 14 2 12 28 -6 -15 -7 16 -1 3 6 1 -2 -5 5 -8 2 4 -2 0 -1 -8 -3 -3 -0 -5 6 1 0 -4 1 -3 -1 2 1 -0 0 -0 -1 -0 -1 3
2 8 23 16 5 9 -4 -1 6 -22 -1 5 6 -10 -3 -3 -4 2 -2 -6 -2 4 -7 -2 -0 -2 -1 -2 -3 -1 2 1 2 -0 0 1 8 0 0 1 -0 2 2 5
7 25 2 10 21 11 -6 -9 -15 -4 3 -1 -10 -0 -3 -2 -5 -6 -0 -1 -0 3 -4 -3 -1 1 1 3 -2 1 0 1 1 -0 5 7 12 1 -2 -3 1 1 1 2
18 13 35 27 9 -7 7 -14 -9 -6 1 -7 9 6 -4 5 3 -2 -5 3 3 -3 -0 3 3 5 5 -2 -2 1 1 2 1 3 -1 7 9 2 1 3 5 0 -1 1
19 16 11 -4 6 8 -6 0 1 -16 -14 -3 -17 -3 -10 -5 0 5 2 3 -0 -2 -0 0 0 -1 -1 5 6 1 3 2 5 4 3 -0 6 2 -1 0 7 -0 -1 -0
11 9 -6 -0 -7 -11 -5 5 -1 -6 -10 4 -5 -4 -14 -1 2 -2 1 1 4 0 0 1 0 1 1 2 -0 1 2 3 -2 -1 0 6 2 -0 -1 11 13 0 -1 -1
-5 -2 6 8 5 -14 -10 -3 6 -7 -4 5 7 -2 -6 1 2 -4 7 5 4 4 5 2 0 0 0 2 1 0 0 2 -0 2 2 6 0 5 9 4 4 -2 0 0
-14 -14 -1 -7 -5 2 7 -15 3 -2 -17 -2 5 2 0 -2 -2 -12 1 2 -2 -1 3 2 0 1 1 -1 1 2 5 5 4 8 9 3 2 -1 2 -1 -4 2 -4 -0
-10 -1 -1 -2 -2 3 -4 -10 -2 -4 -9 5 -6 2 3 -1 -2 -4 -3 -1 -2 0 -2 -3 -1 -1 1 0 2 0 2 -1 -0 7 6 2 1 2 2 1 -2 -0 -0 -1
3 2 1 2 1 1 0 -14 2 -3 -7 -8 7 4 -0 2 -0 -2 -5 -5 -6 -4 -1 -0 -1 -1 2 0 1 1 3 2 -1 4 4 2 2 1 -1 -0 -1 -1 -0 -1
-0 1 -1 -0 -3 3 -1 -2 4 -2 -7 -7 4 1 3 -1 0 -1 -1 -3 -2 -0 2 0 1 -0 2 1 2 1 -1 -1 0 3 -5 1 -2 -0 0 -2 -3 -1 -3 -1
-4 -2 -3 0 8 6 -1 -11 10 -1 5 -15 -0 0 2 -1 1 -0 -0 0 -1 -0 1 1 -1 -2 4 1 0 2 -0 -1 -1 -2 -2 -2 -1 -2 2 -3 -3 -0 -2 1
0 3 4 3 3 -3 -6 -2 -2 5 -5 -12 3 3 -0 2 0 -3 -0 -3 -0 2 -1 1 -1 2 0 1 1 2 1 -1 -0 1 -8 3 1 -2 0 -2 -2 -0 1 1
2 1 -2 -3 1 -4 -2 4 -0 -2 -10 -4 -2 5 3 -2 1 2 -4 2 -1 -2 1 -1 1 2 0 1 2 1 0 -0 3 2 1 -5 -2 0 1 1 1 1 1 -0
2 3 -2 -0 -11 -9 2 1 -0 -3 -6 -3 -2 -5 2 -4 -0 -2 -0 -2 0 -3 0 1 2 1 1 1 -4 -1 -2 -4 -4 0 2 1 -3 -1 -1 -0 1 -0 2 2
-1 -3 -4 -6 -4 3 -1 -3 -2 -5 -3 -4 -1 -2 2 3 -0 2 -0 -1 -0 1 4 -1 2 1 0 -1 -0 0 -2 0 -1 -3 6 3 2 -1 -3 -2 -1 -0 1 -1
-6 -6 -3 2 -0 -3 -2 -2 -3 0 0 -0 1 -1 -3 -5 1 0 -0 1 1 1 6 3 0 1 1 0 -0 0 -1 -1 0 2 0 1 -1 -3 -2 -0 -1 1 0 0
-1 -11 -3 -2 -1 -2 -6 1 0 -1 3 1 -1 4 2 -1 -3 -1 1 -0 2 2 0 3 0 4 1 -0 2 2 1 -1 -0 1 -1 -0 1 0 0 -3 1 1 2 -0
-1 -3 -4 -1 1 -3 -3 1 3 1 1 1 0 2 0 -0 1 -1 -0 0 2 0 2 -1 3 1 1 1 1 2 1 0 0 2 3 2 0 -0 -2 -5 2 -0 0 -2
-5 -2 -2 -0 0 1 1 0 0 2 -0 1 -0 -1 0 -1 -1 1 -1 3 2 2 1 0 1 -2 -0 -1 1 0 0 0 0 1 0 -1 -2 -3 0 2 0 0 -1 -1
-3 -3 1 -0 1 0 0 -0 -2 2 3 -1 -1 -2 -1 0 -1 -0 1 1 0 -0 1 2 1 -0 -0 -0 1 -0 -1 1 0 0 -1 -0 0 0 -1 -1 -0 -0 1 -2
-3 -4 -1 -2 0 4 0 2 -0 0 1 -2 -3 -0 -1 1 -0 1 -0 0 0 3 1 1 -0 -0 2 -1 0 1 1 0 -0 -0 0 1 0 1 0 -2 -0 2 0 -1
-2 1 0 -0 -0 3 1 -1 0 -1 -1 -0 -0 -1 3 1 -0 0 0 1 2 1 1 1 -0 -0 -0 -0 0 1 1 -1 -1 -1 -0 -0 -2 0 2 1 0 1 -1 0
Height
1370 1378 1389 1396 1398 1402 1411 1414 1430 1440 1448 1456 1457 1449 1447 1450 1451 1456 1456 1457 1458 1457 1462 1466 1467 1469 1471 1476 1478 1478 1480 1481 1473 1467 1466 1469 1465 1462 1462 1464 1453 1447 1447 1443
1356 1366 1376 1383 1385 1392 1402 1413 1430 1441 1443 1441 1443 1444 1446 1447 1450 1452 1454 1457 1459 1464 1465 1467 1467 1470 1475 1477 1477 1476 1480 1474 1469 1465 1475 1467 1469 1466 1463 1467 1468 1454 1453 1449
1342 1353 1363 1369 1375 1388 1396 1409 1427 1438 1438 1436 1432 1436 1440 1444 1449 1452 1453 1458 1461 1463 1463 1466 1468 1472 1475 1477 1478 1479 1480 1476 1473 1447 1450 1458 1464 1467 1468 1470 1464 1443 1443 1464
1327 1339 1349 1356 1368 1378 1382 1396 1403 1404 1420 1430 1428 1431 1434 1437 1444 1449 1452 1458 1456 1456 1460 1464 1468 1468 1474 1477 1478 1478 1479 1473 1470 1470 1464 1461 1463 1465 1464 1471 1466 1464 1458 1467
1311 1325 1337 1344 1360 1368 1377 1384 1389 1403 1410 1420 1425 1427 1429 1433 1442 1445 1449 1449 1453 1455 1457 1457 1460 1464 1468 1469 1472 1474 1475 1472 1470 1467 1456 1456 1465 1470 1465 1472 1472 1471 1470 1476
1297 1310 1321 1334 1348 1358 1363 1375 1382 1390 1405 1413 1420 1419 1425 1432 1437 1447 1445 1448 1452 1456 1455 1457 1460 1462 1464 1466 1468 1470 1473 1472 1467 1452 1455 1459 1462 1469 1470 1473 1471 1468 1456 1477
1284 1296 1313 1331 1342 1350 1355 1369 1374 1387 1401 1403 1408 1416 1423 1430 1436 1442 1446 1449 1450 1455 1456 1459 1462 1463 1464 1464 1466 1466 1468 1469 1463 1452 1460 1443 1467 1471 1469 1471 1475 1474 1475 1479
1276 1294 1311 1325 1337 1345 1354 1362 1368 1381 1394 1404 1411 1416 1424 1431 1438 1441 1445 1449 1451 1453 1455 1455 1455 1459 1463 1459 1461 1462 1467 1467 1456 1448 1441 1460 1465 1468 1466 1464 1475 1477 1476 1481
1278 1295 1309 1323 1336 1344 1354 1364 1368 1376 1393 1406 1409 1413 1421 1424 1431 1440 1446 1449 1450 1453 1451 1452 1445 1439 1438 1442 1453 1460 1461 1464 1459 1443 1433 1433 1453 1465 1468 1468 1462 1478 1478 1479
1282 1300 1315 1327 1334 1349 1356 1361 1370 1379 1391 1401 1407 1411 1416 1422 1427 1431 1441 1446 1450 1451 1446 1445 1436 1433 1437 1435 1439 1447 1448 1451 1449 1440 1432 1446 1465 1468 1469 1460 1469 1478 1478 1481
1297 1307 1321 1331 1342 1352 1360 1366 1372 1376 1389 1404 1409 1412 1416 1421 1424 1427 1438 1443 1445 1446 1441 1432 1435 1443 1444 1441 1446 1447 1446 1442 1439 1440 1434 1438 1469 1468 1463 1473 1476 1479 1482 1485
1308 1319 1329 1339 1348 1355 1361 1365 1372 1377 1386 1403 1408 1412 1416 1419 1423 1427 1433 1434 1436 1437 1433 1436 1441 1446 1448 1444 1440 1453 1449 1454 1444 1456 1454 1470 1471 1470 1472 1475 1477 1482 1484 1488
1321 1329 1337 1345 1352 1358 1363 1368 1375 1381 1393 1407 1413 1418 1420 1421 1423 1425 1430 1434 1435 1437 1438 1440 1442 1443 1444 1440 1441 1450 1458 1461 1459 1459 1470 1471 1473 1475 1475 1477 1480 1484 1487 1489
1332 1338 1344 1350 1356 1361 1366 1371 1378 1383 1393 1406 1422 1421 1423 1424 1425 1426 1427 1429 1433 1436 1438 1438 1439 1442 1444 1446 1445 1445 1454 1459 1459 1466 1470 1472 1475 1476 1477 1479 1483 1486 1488 1491
1339 1344 1349 1355 1360 1366 1371 1376 1382 1387 1394 1406 1419 1424 1426 1427 1429 1430 1430 1432 1434 1436 1437 1438 1442 1445 1446 1448 1447 1447 1454 1454 1453 1447 1460 1464 1471 1475 1478 1481 1484 1488 1490 1492
1346 1351 1355 1361 1366 1370 1374 1381 1390 1390 1397 1405 1417 1429 1431 1431 1433 1433 1434 1435 1436 1436 1436 1440 1444 1444 1445 1443 1437 1453 1454 1455 1457 1458 1462 1465 1470 1475 1480 1482 1486 1489 1492 1494
1355 1359 1362 1367 1370 1374 1378 1385 1391 1394 1397 1406 1418 1427 1433 1433 1434 1435 1436 1436 1437 1437 1438 1439 1441 1443 1444 1442 1438 1452 1454 1456 1458 1460 1462 1470 1474 1476 1480 1484 1487 1490 1493 1495
1362 1365 1368 1372 1376 1379 1384 1389 1394 1397 1400 1407 1416 1427 1431 1433 1434 1435 1437 1437 1438 1439 1439 1440 1439 1443 1442 1440 1450 1453 1455 1457 1460 1463 1464 1467 1472 1477 1481 1485 1488 1491 1493 1495
1368 1370 1374 1377 1381 1386 1392 1394 1397 1399 1404 1409 1416 1419 1426 1432 1434 1435 1437 1437 1437 1440 1437 1438 1441 1438 1437 1442 1447 1451 1454 1457 1459 1463 1465 1469 1473 1477 1481 1485 1488 1492 1493 1495
1372 1375 1377 1385 1391 1393 1395 1400 1400 1403 1408 1413 1418 1422 1425 1430 1432 1434 1436 1437 1435 1433 1438 1440 1437 1434 1443 1445 1447 1450 1454 1457 1459 1461 1466 1469 1473 1476 1481 1485 1489 1492 1494 1495
1375 1379 1386 1392 1394 1395 1398 1403 1407 1410 1413 1417 1423 1424 1424 1430 1429 1431 1436 1435 1437 1432 1437 1439 1433 1432 1441 1445 1448 1451 1455 1457 1460 1462 1464 1468 1472 1475 1479 1484 1489 1491 1492 1494
1380 1384 1389 1393 1396 1398 1401 1409 1412 1410 1414 1421 1423 1425 1427 1430 1431 1431 1436 1435 1437 1433 1441 1438 1429 1437 1442 1445 1449 1453 1456 1458 1460 1462 1465 1469 1472 1475 1479 1482 1486 1488 1491 1493
1386 1388 1393 1397 1402 1401 1401 1409 1412 1412 1417 1421 1423 1427 1428 1431 1432 1434 1434 1435 1435 1440 1439 1430 1432 1440 1443 1446 1450 1453 1456 1459 1461 1464 1466 1468 1471 1475 1478 1481 1484 1488 1491 1494
1390 1395 1401 1404 1406 1408 1409 1409 1411 1417 1418 1421 1423 1427 1428 1432 1433 1436 1434 1441 1439 1436 1433 1430 1435 1439 1442 1445 1449 1453 1456 1459 1461 1463 1466 1468 1472 1475 1479 1483 1486 1489 1491 1494
1397 1400 1406 1410 1413 1413 1414 1414 1416 1419 1421 1423 1426 1429 1430 1433 1435 1435 1437 1440 1435 1432 1428 1433 1438 1439 1441 1444 1448 1452 1455 1458 1462 1464 1467 1470 1473 1476 1479 1483 1486 1489 1491 1494
1404 1409 1412 1414 1413 1416 1417 1419 1421 1422 1424 1426 1428 1430 1433 1437 1434 1434 1434 1432 1429 1430 1435 1438 1437 1439 1441 1444 1447 1451 1455 1458 1461 1465 1468 1471 1473 1477 1480 1483 1487 1489 1492 1494
1411 1417 1417 1418 1418 1420 1422 1423 1425 1426 1427 1429 1428 1429 1434 1437 1436 1436 1435 1432 1434 1436 1437 1437 1437 1439 1441 1444 1447 1451 1454 1457 1460 1464 1467 1470 1474 1477 1480 1483 1486 1489 1491 1494